Regional Weather Roundup
Issued by NWS San Angelo, TX

Home | Current Version | Previous Version | Text Only | Print | Product List | Glossary On
Versions: 1 2 3 4 5 6 7 8 9 10 11 12 13 14 15 16 17 18 19 20 21 22 23 24 25 26 27 28 29 30 31 32 33 34 35 36 37 38 39 40 41 42 43 44 45 46 47 48 49 50
000
ASUS44 KSJT 170410
RWRSJT
WEST CENTRAL TEXAS REGIONAL WEATHER ROUNDUP
NATIONAL WEATHER SERVICE SAN ANGELO TX
1100 PM CDT TUE SEP 16 2014

NOTE: "FAIR" INDICATES FEW OR NO CLOUDS BELOW 12,000 FEET WITH NO
SIGNIFICANT WEATHER AND/OR OBSTRUCTIONS TO VISIBILITY.

TXZ049-054-064>066-071>073-076>078-098-099-113-114-127-128-139-140-
154-155-168>170-170500
...LOCATIONS ACROSS WEST CENTRAL TEXAS...

CITY           SKY/WX    TMP DP  RH WIND       PRES   REMARKS
SAN ANGELO     CLOUDY    80  66  62 E7        30.05R
ABILENE        CLOUDY    80  65  59 CALM      30.06S
DYESS AFB      CLOUDY    78  66  68 NW2       30.06R
JUNCTION       CLOUDY    78  69  73 E6        30.07S
SWEETWATER     CLOUDY    73  73 100 N3        30.12S
BROWNWOOD      CLOUDY    81  68  65 SE12      30.05S
COLEMAN        CLOUDY    80  63  56 SE5       30.06S
SONORA         CLOUDY    75  68  78 N7        30.10F
OZONA          FAIR      73  66  78 NE6       30.10S
BRADY            N/A     75  70  83 SE9       30.07S
$$

TEXAS PANHANDLE/OKLAHOMA PANHANDLE

CITY           SKY/WX    TMP DP  RH WIND       PRES   REMARKS
AMARILLO       CLOUDY    68  62  81 SW9       30.12S
BORGER         CLOUDY    73  62  68 S9        30.08S
CANADIAN       CLOUDY    73  66  78 SW8       30.04S
DALHART        CLOUDY    67  59  75 SW10      30.12S
DUMAS          CLOUDY    67  61  83 SW8       30.10F
GUYMON         NOT AVBL
HEREFORD       CLOUDY    67  64  89 S5        30.14F
PAMPA          CLOUDY    67  61  81 S8        30.10S
PERRYTON       PTCLDY    67  60  76 S5        30.06R
$$

SOUTHERN PANHANDLE/SOUTH PLAINS/ROLLING PLAINS

CITY           SKY/WX    TMP DP  RH WIND       PRES   REMARKS
LUBBOCK        LGT RAIN  69  67  93 NE6       30.13F
SNYDER         LGT RAIN  70  68  93 N3        30.11R
CHILDRESS      CLOUDY    75  68  78 SW6       30.06S
SEMINOLE       CLOUDY    68  67  95 CALM      30.15S
$$

PERMIAN BASIN

CITY           SKY/WX    TMP DP  RH WIND       PRES   REMARKS
MIDLAND        CLOUDY    74  65  73 E9        30.10S
ODESSA         CLOUDY    74  65  73 E7        30.12R
WINK           PTCLDY    75  65  70 NE8       30.08R
$$

FAR WEST/SOUTHWEST MOUNTAINS/TRANS PECOS

CITY           SKY/WX    TMP DP  RH WIND       PRES   REMARKS
ALPINE         CLEAR     65  60  83 CALM      30.24S
DRYDEN           N/A     80  67  64 CALM      30.04R
EL PASO        CLOUDY    70  65  84 N16       30.11R
FORT STOCKTON  PTCLDY    73  64  73 S6        30.10S
GUADALUPE PASS CLOUDY    65  60  84 NE28      30.23S
MARFA          PTCLDY    64  59  82 NE5       30.21S
PECOS          PTCLDY    73  63  70 E3        30.07S
$$

DALLAS/FORT WORTH METROPLEX

CITY           SKY/WX    TMP DP  RH WIND       PRES   REMARKS
DFW AIRPORT    MOCLDY    83  68  60 SE9       30.02R
FTW MEACHAM    PTCLDY    82  68  62 SE10      30.01S
DAL-EXECUTIVE  PTCLDY    83  69  62 SE7       30.02R
GRAND PRAIRIE  PTCLDY    82  67  61 SE5       30.03S
ADDISON        PTCLDY    83  66  55 SE9       30.04R
MESQUITE       PTCLDY    79  67  67 SE3       30.03R
LANCASTER      PTCLDY    78  67  69 CALM      30.03S
$$

NORTH CENTRAL TEXAS

CITY           SKY/WX    TMP DP  RH WIND       PRES   REMARKS
SHRMAN/DENISON MOCLDY    79  69  70 SE6       30.04S
GAINESVILLE    CLOUDY    76  69  79 E6        30.05S
BRIDGEPORT     PTCLDY    78  65  63 SE5       30.05R
DENTON         MOCLDY    80  68  66 SE6       30.02R
WAXAHACHIE     MOCLDY    80  67  64 CALM      30.04S
GRANBURY       CLOUDY    84  69  61 SE7       30.03F
$$

WESTERN NORTH TEXAS

CITY           SKY/WX    TMP DP  RH WIND       PRES   REMARKS
WICHITA FALLS  CLOUDY    77  68  73 S8        30.01S
VERNON         CLOUDY    80  67  64 SW7       30.03S
BRECKENRIDGE   MOCLDY    82  66  57 SE8       30.03S
COMANCHE         N/A     79  68  69 SE8       30.06S
$$

CENTRAL AND SOUTH CENTRAL TEXAS

CITY           SKY/WX    TMP DP  RH WIND       PRES   REMARKS
AUSTIN/BERGSTM CLOUDY    77  74  90 CALM      30.02S
WACO           MOCLDY    78  72  81 S9        30.03S
HILLSBORO      CLOUDY    80  70  71 SE10G20   30.03S
TEMPLE         MOCLDY    75  66  73 SE6       30.03F
KILLEEN-GRAY   MOCLDY    75  72  88 SE8       30.05R
FORT HOOD      PTCLDY    77  72  84 SE6       30.05S
GEORGETOWN     CLOUDY    75  73  94 CALM      30.04F
LAGO VISTA     LGT RAIN  75  72  91 CALM      30.06F
SAN MARCOS     CLOUDY    75  70  83 NE8       30.03S
NEW BRAUNFELS  CLOUDY    78  72  81 NE9       30.01R
RANDOLPH AFB   PTCLDY    76  74  93 NE5       30.02S
SAN ANTONIO    MOCLDY    80  74  81 E6        30.02R
STINSON        MOCLDY    80  74  81 NE6       29.99R
PLEASANTON     NOT AVBL
LA GRANGE      CLOUDY    77  76  98 CALM      30.01S
GIDDINGS       CLOUDY    75  73  94 E7        30.06F FOG
$$

EAST TEXAS

CITY           SKY/WX    TMP DP  RH WIND       PRES   REMARKS
PARIS          MOCLDY    75  66  73 SE5       30.04S
CLARKSVILLE    NOT AVBL
TYLER          CLOUDY    79  72  79 S6        30.03R
LONGVIEW       PTCLDY    76  69  79 S3        30.02S
PALESTINE      MOCLDY    76  72  86 CALM      30.05S
NACOGDOCHES    MOCLDY    73  68  83 E3        30.04S
$$

TEXAS HILL COUNTRY AND EDWARDS PLATEAU

CITY           SKY/WX    TMP DP  RH WIND       PRES   REMARKS
LLANO          MOCLDY    75  73  94 CALM      30.07F
HORSESHOE BAY  LGT RAIN  74  74 100 E3        30.05F
KERRVILLE      MOCLDY    76  71  83 NE6       30.06S
FREDERICKSBRG  RAIN      72  71  96 CALM      30.07F
ROCKSPRINGS    MOCLDY    77  70  78 SE8       30.09S
HONDO          PTCLDY    81  72  74 E6        30.02R
UVALDE         PTCLDY    78  73  86 NE5       30.00S
DEL RIO        MOCLDY    82  72  71 E7        29.97R
$$

SOUTHEAST TEXAS

CITY           SKY/WX    TMP DP  RH WIND       PRES   REMARKS
COLLEGE STN    LGT RAIN  77  75  93 S6        30.02F
CALDWELL       DRIZZLE   73  73 100 CALM      30.05F
CROCKETT       MOCLDY    75  73  94 NE3       30.06F
BRENHAM        LGT RAIN  76  74  94 CALM      30.04F
HUNTSVILLE     CLOUDY    77  74  90 S3        30.02F
CONROE         CLOUDY    75  74  96 CALM      30.03F
HOUSTON BUSH   CLOUDY    77  75  93 N6        30.02R
HOUSTON HOBBY  CLOUDY    78  76  93 CALM      30.01R
PERLAND        CLOUDY    79  76  90 CALM      30.02S
WHARTON        CLOUDY    76  75  96 N3        30.03R
$$

THE UPPER TEXAS COAST

CITY           SKY/WX    TMP DP  RH WIND       PRES   REMARKS
ORANGE         CLOUDY    76  76 100 CALM      30.04S
PORT ARTHUR    LGT RAIN  78  76  93 N3        30.02R
GALVESTON      CLOUDY    80  78  94 S6        30.02R
ANGLETON       CLOUDY    77  76  96 NE3       30.01R
BAY CITY       CLOUDY   N/A N/A N/A NE3       30.01R
$$

TEXAS COASTAL BEND, RIO GRANDE PLAINS DEEP SOUTH TEXAS

CITY           SKY/WX    TMP DP  RH WIND       PRES   REMARKS
VICTORIA       MOCLDY    78  76  93 NE3       30.00R
BEEVILLE       FAIR      78  77  97 CALM      29.98S
ROCKPORT       PTCLDY    80  75  84 S7        29.97S
PORT ARANSAS   PTCLDY    83  76  79 S10       29.97S
PORT LAVACA    MOCLDY    79  76  92 SE5       29.99R
CORPUS CHRISTI PTCLDY    80  77  90 SE7       29.97R
KINGSVILLE NAS PTCLDY    82  78  88 SE13      29.96R
COTULLA        PTCLDY   N/A N/A N/A E7        29.97R
LAREDO         CLEAR     78  78 100 SE6       29.99R
BROWNSVILLE    PTCLDY    79  76  90 CALM      29.97S
PORT ISABEL    PTCLDY    80  75  84 S6        29.97R
HEBBRONVILLE     N/A     77  75  92 SE3       29.98F
MCALLEN        PTCLDY    79  76  90 SE6       29.98R
WESLACO        PTCLDY    79  74  83 S6        29.97R
FALFURRIAS     CLEAR     65  62  89 SE6       29.96R
EDINBURG       PTCLDY    82  74  78 S7        29.97S
$$


USA.gov is the U.S. government's official web portal to all federal, state and local government web resources and services.